SCP
0 0 0 0 0 0 0 0 0 0 0 0 0 0 0 0 0 0 0 0 0 0 0 0 0 0 0 1 1 1 0 0 0 1 1 1 1 1
0 0 0 0 0 0 0 0 0 0 0 0 0 0 0 0 0 0 0 0 0 0 0 0 0 0 0 0 0 0 0 0 0 0 0 1 1 1
0 0 0 0 0 0 0 0 0 0 0 0 0 0 0 0 0 0 0 0 0 0 0 0 0 0 0 0 0 0 0 0 0 0 0 0 0 0
1 1 0 0 0 0 0 0 0 0 0 0 0 0 0 0 0 0 0 0 0 0 0 0 0 0 0 0 0 0 0 0 0 0 0 0 0 0
1 0 0 0 0 0 0 0 0 0 0 0 0 0 0 0 0 0 0 0 0 0 0 0 0 0 0 0 0 0 0 0 0 0 0 0 0 0
0 0 0 0 0 0 0 0 0 0 0 0 0 0 0 0 0 0 0 0 0 0 0 0 0 0 0 0 0 0 0 0 0 0 0 0 0 0
0 0 0 0 0 0 0 0 0 0 0 0 0 0 0 0 0 0 0 0 0 0 0 0 0 0 0 0 0 0 0 0 0 0 0 0 0 0
0 0 0 0 0 0 0 0 0 0 0 0 0 0 0 0 0 0 0 0 0 0 0 0 0 0 0 0 0 0 0 0 0 0 0 0 0 0
0 0 0 0 0 0 0 0 0 0 0 0 0 0 0 0 0 0 0 0 0 0 0 0 0 0 0 0 0 0 0 0 0 0 0 0 0 0
0 0 0 0 0 0 0 0 0 0 0 0 0 0 0 0 0 0 0 0 0 0 0 0 0 0 0 0 0 0 0 0 0 0 0 0 0 0
0 0 0 0 0 0 0 0 0 0 0 0 0 0 0 0 0 0 0 0 0 0 0 0 0 0 0 0 0 0 0 0 0 0 0 0 0 0
0 0 0 0 0 0 0 0 0 0 0 0 0 0 0 0 0 0 0 0 0 0 0 0 0 0 0 0 0 0 0 0 0 0 0 0 0 0
0 0 0 0 0 0 0 0 0 0 0 0 0 0 0 0 0 0 0 0 0 0 0 0 0 0 0 0 0 0 0 0 0 0 0 0 0 0
0 0 0 0 0 0 0 0 0 0 0 0 0 0 0 0 0 0 0 0 0 0 0 0 0 0 0 0 0 0 0 0 0 0 0 0 0 0
0 0 0 0 0 0 0 0 0 0 0 0 0 0 0 0 0 0 0 0 0 0 0 0 0 0 0 0 0 0 0 0 0 0 0 0 0 0
0 0 0 0 0 0 0 0 0 0 0 0 0 0 0 0 0 0 0 0 0 0 0 0 0 0 0 0 0 0 0 0 0 0 0 0 0 0
0 0 0 0 0 0 0 0 0 0 0 0 0 0 0 0 0 0 0 0 0 0 0 0 0 0 0 0 0 0 0 0 0 0 0 0 0 0
0 0 0 0 0 0 0 0 0 0 0 0 0 0 0 0 0 0 0 0 0 0 1 1 0 0 0 0 0 0 0 0 0 0 0 0 0 0
0 0 0 0 0 0 0 0 0 0 0 0 0 0 0 0 0 0 0 0 0 0 0 1 1 0 0 0 0 0 0 0 0 0 0 0 0 0
0 0 0 0 0 0 0 0 0 0 0 0 0 0 0 0 0 0 0 0 0 0 0 0 0 0 0 0 0 0 0 0 0 0 0 0 0 0
0 0 0 0 0 0 0 0 0 0 0 0 0 0 0 0 0 0 0 0 0 0 0 0 0 0 0 0 0 0 0 0 0 0 0 0 0 0
0 0 0 0 0 0 0 0 0 0 0 0 0 0 0 0 0 0 0 0 0 0 0 0 0 0 0 0 0 0 0 0 0 0 0 0 0 0
0 0 0 0 0 0 0 0 0 0 0 0 0 0 0 0 0 0 0 0 0 0 0 0 0 0 0 0 0 0 0 0 0 0 0 0 0 0
Wind_Speed
3 3 3 2 3 3 3 4 4 3 3 2 1 1 1 1 2 2 2 5 6 6 7 7 7 7 7 7 8 8 8 8 8 7 7 7 7 7
2 2 2 2 2 3 3 3 3 4 2 1 2 1 2 2 4 3 4 7 8 8 8 8 8 8 8 8 8 8 9 8 8 8 8 8 8 7
2 2 3 2 2 2 2 3 3 3 3 1 1 1 2 3 3 3 3 3 4 8 8 8 8 8 8 8 8 8 8 8 8 8 8 8 8 8
1 1 2 2 2 2 2 2 2 3 4 3 2 2 2 3 4 4 4 4 4 8 9 8 8 8 7 7 7 6 6 6 7 7 8 8 8 8
1 1 1 1 1 1 1 2 2 2 3 4 2 2 2 3 4 4 5 3 4 6 8 9 9 8 8 7 7 6 6 6 6 7 7 7 7 7
1 0 0 0 1 1 1 2 3 3 3 4 3 2 2 3 3 4 3 3 3 3 5 6 8 8 8 8 8 7 7 7 7 7 7 7 6 6
2 2 2 2 1 1 1 2 3 3 3 4 3 3 3 3 3 3 4 3 3 2 3 3 3 3 4 5 7 7 8 7 7 6 6 5 5 4
2 2 3 3 3 3 3 3 3 4 4 4 3 4 4 3 3 4 4 3 2 1 2 2 2 2 2 2 5 6 7 7 6 6 5 5 5 4
2 2 2 3 4 3 5 6 5 4 3 4 5 5 5 5 5 5 4 3 2 3 2 2 1 1 0 2 4 4 5 5 5 5 4 4 3 2
3 2 2 3 3 3 4 5 5 4 3 2 2 3 3 4 5 4 5 4 3 2 2 2 1 1 1 1 2 3 4 4 4 4 4 3 2 1
3 3 2 2 4 4 5 5 5 4 6 7 6 5 6 7 7 6 5 4 3 1 1 2 2 1 0 1 1 3 3 4 4 4 3 3 2 1
2 3 4 3 4 4 3 4 4 3 3 5 6 6 5 6 6 4 5 5 3 2 2 2 2 2 1 1 1 1 2 3 3 3 3 3 2 2
2 2 2 4 5 5 4 3 4 4 4 5 5 4 4 3 3 2 2 3 3 2 3 3 3 2 2 1 1 1 2 2 2 2 3 3 3 3
2 1 2 4 5 5 4 5 6 5 4 4 4 3 3 2 2 2 3 2 2 2 4 4 3 3 3 2 2 1 2 2 2 2 2 2 3 4
2 3 4 5 5 5 6 6 5 3 3 4 3 2 2 2 2 2 3 4 4 3 3 2 3 3 2 2 2 2 1 2 2 2 2 2 2 2
3 4 5 6 5 4 4 3 2 2 3 3 2 2 2 2 2 2 2 2 3 2 3 2 2 3 2 2 2 2 1 2 2 3 2 3 3 4
4 3 2 2 2 2 2 2 2 2 2 2 2 2 2 2 1 1 1 1 2 1 1 1 1 1 1 2 2 2 2 2 2 2 2 3 3 4
4 3 2 2 2 2 2 1 1 1 1 2 2 2 2 2 2 1 1 1 1 1 1 1 1 1 1 1 3 3 2 2 2 2 2 3 4 3
3 2 2 2 2 2 2 1 1 1 1 2 2 2 2 2 2 2 1 1 1 1 1 1 1 2 2 2 1 4 3 2 2 2 2 3 4 4
2 2 2 2 2 2 2 2 1 2 2 2 2 2 2 2 2 2 2 2 2 1 1 1 2 3 3 2 2 2 5 4 3 3 2 2 4 5
2 2 2 2 2 2 2 2 2 2 2 2 2 2 2 2 2 3 3 3 2 2 3 3 2 2 1 1 2 2 2 5 6 4 3 3 3 2
3 3 3 3 3 3 3 2 2 2 3 3 3 3 3 3 4 4 4 3 3 3 3 2 1 2 2 3 3 3 2 2 4 8 9 7 4 4
3 3 3 3 3 3 3 3 4 3 3 3 3 3 4 4 3 3 4 4 3 3 3 2 2 2 3 3 3 3 4 3 2 2 3 7 12 13
Wind_Direction
222 218 221 229 215 211 199 189 186 208 225 198 185 172 145 119 103 106 106 99 108 110 115 120 122 122 120 117 115 114 112 111 110 109 108 107 110 107
219 212 226 231 215 209 209 207 199 193 210 185 187 164 134 117 102 103 102 102 104 108 110 113 114 116 115 116 117 117 115 112 112 113 112 111 112 114
215 208 230 223 213 213 209 201 196 183 191 184 144 129 128 121 103 93 87 86 95 101 104 107 110 112 112 113 115 115 115 112 113 115 115 113 111 110
222 209 233 214 210 215 205 200 191 182 174 176 158 145 128 127 115 102 91 88 86 91 93 96 99 104 108 112 111 111 114 114 117 117 115 112 111 109
205 204 233 204 215 207 193 184 171 158 159 159 151 127 115 125 113 96 87 77 85 89 87 85 87 92 96 102 109 111 112 112 112 111 109 109 107 105
44 78 76 149 204 198 180 173 156 148 146 147 143 130 123 126 123 121 104 77 72 76 80 80 81 83 87 94 102 107 110 111 112 110 107 104 103 102
44 40 45 65 79 110 135 158 155 153 150 149 143 132 135 150 151 142 129 108 68 72 82 65 66 65 69 85 96 105 107 107 108 107 106 106 105 102
60 38 39 47 60 76 88 104 134 153 161 156 155 162 171 162 147 149 141 138 129 119 102 79 67 70 64 81 97 102 105 106 106 105 105 104 104 105
63 49 50 49 53 66 71 74 75 84 133 157 162 175 174 173 163 158 156 144 138 147 133 114 95 106 117 108 111 115 115 116 119 120 118 114 111 118
53 49 61 49 52 79 85 75 63 51 58 108 146 161 159 159 164 158 144 119 91 88 135 140 157 161 135 135 127 139 145 145 142 138 134 131 122 131
52 50 64 65 54 83 100 95 79 57 58 78 90 104 119 129 136 132 137 140 136 141 149 144 153 142 139 172 153 156 160 162 162 159 156 154 163 205
57 47 55 68 72 84 104 110 102 81 81 80 80 84 101 120 129 146 159 159 147 160 172 158 151 153 159 169 176 182 186 185 187 192 193 193 203 220
92 62 52 74 84 82 83 94 112 112 98 94 89 86 87 94 103 106 134 159 161 166 163 160 154 162 166 166 188 195 199 196 200 209 213 224 226 216
123 107 90 91 90 87 87 97 102 101 100 97 93 89 91 92 86 86 93 90 74 133 156 159 154 164 163 170 179 175 190 195 201 216 229 236 232 225
117 119 114 105 94 87 92 101 103 105 109 106 104 92 77 86 95 90 83 84 75 77 115 146 144 151 164 169 164 171 183 190 201 218 226 231 236 238
107 99 97 93 86 84 87 91 89 102 115 116 114 102 98 98 91 89 102 107 95 77 64 88 138 149 152 158 169 180 195 201 202 219 232 239 234 231
123 104 96 96 95 92 88 86 92 102 103 108 119 116 113 105 89 77 98 105 115 129 113 79 79 101 146 163 182 199 205 219 221 215 228 249 251 245
126 130 139 141 146 147 141 127 122 127 127 128 131 131 136 138 128 111 106 128 139 152 157 138 133 127 142 190 210 207 207 223 225 213 227 251 266 257
138 155 166 174 179 177 176 172 170 164 154 154 154 153 152 156 150 152 158 162 170 181 185 176 182 176 207 247 217 204 214 221 225 230 230 238 259 270
171 178 188 193 190 188 188 186 174 162 164 173 173 173 176 180 181 182 185 194 202 207 206 199 206 206 217 244 259 229 210 217 225 243 247 247 261 270
191 195 197 198 200 198 196 191 186 185 186 187 190 194 191 190 201 204 203 203 208 216 222 227 231 200 184 196 239 252 229 216 221 232 240 250 265 271
200 203 205 207 205 203 201 197 198 199 196 201 204 204 203 205 208 207 207 209 216 225 234 233 158 164 190 219 247 267 280 279 238 233 234 231 244 255
211 209 209 208 207 205 204 206 210 213 211 212 211 211 209 212 217 213 212 213 216 222 224 215 195 202 218 224 240 253 264 279 285 274 259 237 232 246